Regional Weather Roundup
Issued by NWS

Home | Current Version | Previous Version | Graphics & Text | Print | Product List | Glossary On
Versions: 1 2 3 4 5 6 7 8 9 10 11 12 13 14 15 16 17 18 19 20 21 22 23 24 25 26 27 28 29 30 31 32 33 34 35 36 37 38 39 40 41 42 43 44 45 46 47 48 49 50
343
ASUS45 KCYS 270610
RWRWY

WYOMING REGIONAL WEATHER ROUNDUP
NATIONAL WEATHER SERVICE CHEYENNE WY
1200 AM MDT TUE JUN 27 2017

NOTE:  "FAIR" INDICATES FEW OR NO CLOUDS BELOW 12,000 FEET
WITH NO SIGNIFICANT WEATHER AND/OR OBSTRUCTIONS TO VISIBILITY.

WYZ001-270700-
YELLOWSTONE NATIONAL PARK

CITY           SKY/WX    TMP DP  RH WIND       PRES   REMARKS
LK YELLOWSTONE   N/A     60  36  40 W10G18    30.18R
6HR MIN TEMP:  54; 6HR MAX TEMP:  74;

W YELLOWSTONE  NOT AVBL

$$
WYZ002>013-054>058-071-098>099-270700-
NORTHERN WYOMING

CITY           SKY/WX    TMP DP  RH WIND       PRES   REMARKS
JACKSON        FAIR      64  41  42 S13       30.08R
CODY           FAIR      70  37  29 SW13      29.91F
GREYBULL       FAIR      78  24  13 VRB6      29.79S
6HR MIN TEMP:  77; 6HR MAX TEMP:  94;

WORLAND        FAIR      73  34  23 S10       29.82F
6HR MIN TEMP:  71; 6HR MAX TEMP:  92;

SHERIDAN       FAIR      59  48  67 VRB5      29.83F
6HR MIN TEMP:  59; 6HR MAX TEMP:  88;

BUFFALO        FAIR      67  41  38 SE12      29.92F
6HR MIN TEMP:  67; 6HR MAX TEMP:  86;

GILLETTE         N/A     69  40  34 S24G32    29.91F
6HR MIN TEMP:  69; 6HR MAX TEMP:  86;

NEWCASTLE      FAIR      68  34  28 SE22G30   30.02R

$$
WYZ014>020-022>026-101>103-270700-
CENTRAL WYOMING

CITY           SKY/WX    TMP DP  RH WIND       PRES   REMARKS
BIG PINEY      FAIR      58  41  53 NW6       30.12R
6HR MIN TEMP:  55; 6HR MAX TEMP:  80;

PINEDALE       FAIR      52  43  71 CALM      30.13S
DUBOIS         FAIR      61  32  33 W7        30.10F
LANDER         FAIR      74  30  19 SW17      29.97F
6HR MIN TEMP:  64; 6HR MAX TEMP:  86;

RIVERTON       FAIR      69  33  26 SW8       29.96F
6HR MIN TEMP:  69; 6HR MAX TEMP:  87;

CASPER         FAIR      75  39  27 S12       29.95F
6HR MIN TEMP:  65; 6HR MAX TEMP:  88;

DOUGLAS        FAIR      67  43  41 SE20      30.02F
6HR MIN TEMP:  67; 6HR MAX TEMP:  82;


$$
WYZ021-027>030-104>119-270700-
SOUTHERN WYOMING

CITY           SKY/WX    TMP DP  RH WIND       PRES   REMARKS
EVANSTON       FAIR      68  37  32 SE9       30.12F
6HR MIN TEMP:  65; 6HR MAX TEMP:  84;

KEMMERER         N/A     68  32  26 W3        30.17R
FORT BRIDGER   CLOUDY    74  32  21 W13G39    30.17S
ROCK SPRINGS   FAIR      67  29  24 SE8       30.09F
6HR MIN TEMP:  65; 6HR MAX TEMP:  82;

DIXON          FAIR      61  32  34 E6        30.14F
RAWLINS        FAIR      69  30  23 W9        30.10F
6HR MIN TEMP:  67; 6HR MAX TEMP:  85;

SARATOGA       FAIR      61  32  33 S7        30.14F
LARAMIE        FAIR      60  51  72 SE25G38   30.17F
6HR MIN TEMP:  60; 6HR MAX TEMP:  80;

CHEYENNE       FAIR      60  55  83 S16G29    30.17F
6HR MIN TEMP:  60; 6HR MAX TEMP:  81;

TORRINGTON     FAIR      66  48  52 SE17      30.05S
6HR MIN TEMP:  66; 6HR MAX TEMP:  83;

PINE BLUFFS    FAIR      61  55  82 SE20G31   30.12F

$$




USA.gov is the U.S. government's official web portal to all federal, state and local government web resources and services.